Location: *
(49.6619°S, 177.4603°W)
Time: 01:39:20
(UTC+00:00)

Cosmos 2123 Rocket - Pass Details

Date: 31 January 2023
Orbit: 962 x 990 km, 82.9° (Epoch: 20 March)

Event Time Altitude Azimuth Distance (km) Brightness Sun altitude
Rises 11:43:51 0° 187° (S) 3,739 8.5 -22.8°
Reaches altitude 10° 11:46:29 10° 182° (S) 2,781 7.5 -22.9°
Maximum altitude 11:52:43 52° 106° (ESE) 1,214 4.5 -22.9°
Enters shadow 11:55:15 34° 49° (NE) 1,582 4.7 -22.9°
